Home   Weather   Petaluma   Past weeks
Flag for USA

Past Weather in Petaluma, California, USA — Yesterday and Last 2 Weeks

Now
58 °F

Partly sunny.


Feels Like: 53 °F
Forecast: 72 / 48 °F
Wind: 25 mph from West

Location: Napa County Airport

Current Time: May 21, 2019 at 8:01:15 pm

Latest Report: May 21, 2019 at 6:54 pm


Visibility: 10 mi

Pressure: 29.78 "Hg

Humidity: 72%

Dew Point: 49 °F

Location of PetalumaLocation

Past Weather in Petaluma — Graph

°F

Petaluma Temperature Yesterday

Maximum temperature yesterday: 66 °F (at 2:54 pm)
Minimum temperature yesterday: 44 °F (at 4:54 am)
Average temperature yesterday: 53 °F

High & Low Weather Summary for the Past Weeks

 TemperatureHumidityPressure
High72 °F (May 11, 2:54 pm)100% (May 19, 3:54 am)30.12 "Hg (May 19, 3:54 am)
Low44 °F (May 20, 4:54 am)49% (May 20, 3:54 pm)29.62 "Hg (May 15, 8:54 pm)
Average56 °F82%29.89 "Hg
* Reported May 6 6:54 pm — May 21 6:54 pm, Petaluma. Weather by CustomWeather, © 2019

Note: Actual official high and low records may vary slightly from our data, if they occured in-between our weather recording intervals... More about our weather records

Advertising

Petaluma Weather History for the Previous 24 Hours

Scroll right to see more
 ConditionsComfort  
Time TempWeatherWind HumidityBarometerVisibility
6:54 pm
Tue, May 21
58 °FPartly sunny.25 mph72%29.78 "Hg10 mi
5:54 pm62 °FPartly sunny.25 mph65%29.79 "Hg10 mi
4:54 pm61 °FBroken clouds.18 mph67%29.80 "Hg10 mi
3:54 pm63 °FBroken clouds.23 mph65%29.83 "Hg10 mi
2:54 pm63 °FPartly sunny.24 mph65%29.83 "Hg10 mi
1:54 pm62 °FBroken clouds.24 mph62%29.84 "Hg10 mi
12:54 pm63 °FPartly sunny.22 mph65%29.86 "Hg10 mi
11:54 am60 °FBroken clouds.25 mph72%29.87 "Hg10 mi
11:01 am59 °FMostly cloudy.16 mph78%29.90 "Hg10 mi
9:54 am56 °FPartly sunny.15 mph87%29.89 "Hg10 mi
8:54 am56 °FPartly sunny.12 mph84%29.88 "Hg10 mi
8:08 am54 °FLight rain. Mostly cloudy.8 mph86%29.92 "Hg10 mi
6:54 am53 °FPartly sunny.13 mph86%29.89 "Hg10 mi
5:54 am52 °FPartly sunny.10 mph89%29.89 "Hg10 mi
5:27 am50 °FMostly cloudy.No wind93%29.92 "Hg10 mi
4:54 am52 °FMostly cloudy.No wind86%29.89 "Hg10 mi
3:54 am52 °FClear.10 mph86%29.89 "Hg10 mi
3:11 am53 °FMostly cloudy.12 mph86%29.91 "Hg10 mi
2:41 am53 °FMostly cloudy.10 mph89%29.91 "Hg10 mi
2:06 am53 °FMostly cloudy.10 mph86%29.92 "Hg10 mi
1:54 am53 °FMostly cloudy.7 mph89%29.90 "Hg10 mi
1:24 am53 °FLight rain. Fog.12 mph89%29.93 "Hg6 mi
1:16 am53 °FLight rain. Fog.9 mph93%29.93 "Hg3 mi
1:07 am54 °FRain. Fog.13 mph93%29.93 "Hg4 mi
12:43 am53 °FLight rain. Fog.10 mph96%29.94 "Hg6 mi
12:18 am54 °FRain. Fog.14 mph93%29.95 "Hg2 mi
12:07 am53 °FRain. Fog.16 mph93%29.95 "Hg2 mi
11:54 pm
Mon, May 20
54 °FMostly cloudy.14 mph90%29.92 "Hg10 mi
11:19 pm55 °FMostly cloudy.12 mph80%29.96 "Hg10 mi
10:54 pm55 °FLight rain. Mostly cloudy.9 mph80%29.93 "Hg10 mi
9:54 pm54 °FPassing clouds.3 mph80%29.94 "Hg10 mi
8:54 pm54 °FPassing clouds.9 mph80%29.95 "Hg10 mi
Weather by CustomWeather, © 2019

See weather overview